Tracking 19484 objects as of 20-Jan-2019
HD Live streaming from Space Station
objects crossing your sky now

METOP-C

Track METOP-C now!
10-day predictions


NORAD ID: 43689
Int'l Code: 2018-087A
Perigee: 825.5 km
Apogee: 829.5 km
Inclination: 98.7 °
Period: 101.3 minutes
Semi major axis: 7198 km
RCS: Unknown
Launch date: November 7, 2018
Source: European Organisation for the Exploitation of Meteorological Satellites (EUME)
Launch site: FRENCH GUIANA (FRGUI)
aabbcc
Your satellite tracking list
Your tracking list is empty




NASA's NSSDC Master Catalog

Two Line Element Set (TLE):
1 43689U 18087A   19019.27926956 -.00000044  00000-0  00000+0 0  9998
2 43689  98.7244  80.8285 0002746  44.2443 315.8928 14.21477550 10404
Source of the keplerian elements: AFSPC